Dewpoint
69 71 73 73 72 72 72 72 73 72 72 73 72 72 71 71 72 72 73 72 72 73 73 72 71 70 71 71 71 69 71 71 71 72 72 72 72 72 72 72 72 69 71
70 72 74 73 72 72 72 72 73 73 73 73 72 72 72 72 73 73 73 72 72 72 72 71 70 70 70 71 71 70 71 71 71 72 72 73 72 73 73 72 70 70 71
69 71 73 74 73 73 72 72 73 73 73 73 72 72 72 72 73 73 72 72 72 72 72 72 71 70 70 71 71 71 70 71 71 71 72 69 69 72 72 72 72 72 72
69 71 71 74 74 73 72 73 72 73 73 73 73 73 73 73 72 72 72 72 72 72 72 71 70 70 70 70 70 70 71 71 71 71 68 69 69 72 70 71 72 72 72
69 70 71 73 71 73 72 73 72 73 73 73 73 72 73 73 73 73 72 72 72 72 72 71 70 70 70 70 71 72 72 72 71 68 69 70 68 71 72 72 71 71 70
70 70 73 73 73 73 73 73 72 72 73 73 72 73 73 72 72 72 72 72 72 72 71 71 71 70 70 70 70 69 69 70 71 69 68 70 70 72 72 72 71 71 72
70 71 71 73 73 73 73 73 72 72 72 71 72 73 73 72 72 72 72 72 71 71 71 71 70 69 69 69 70 70 72 73 71 70 69 68 70 72 71 71 71 71 71
69 69 71 72 73 73 73 72 72 71 72 73 72 73 72 73 72 72 71 70 70 70 70 70 70 70 70 70 70 70 73 71 68 69 70 67 70 71 71 71 71 71 71
69 70 71 71 72 73 73 72 72 71 72 72 73 72 72 73 72 72 71 71 71 71 70 71 71 71 71 71 72 72 72 70 68 69 69 66 71 68 66 69 69 70 69
69 70 69 72 71 72 72 70 70 72 72 73 73 72 73 73 72 72 72 71 71 71 71 71 71 72 72 71 71 71 71 73 67 67 68 66 70 72 68 68 69 71 71
68 68 68 69 70 72 72 72 71 72 71 71 73 72 72 71 71 71 72 71 71 71 71 72 72 73 73 73 72 71 71 66 67 68 68 69 70 72 70 69 69 69 69
65 67 67 67 68 70 71 72 72 70 71 73 74 73 74 73 72 70 71 72 72 72 73 73 72 71 69 66 65 69 66 66 66 67 68 69 70 70 70 70 70 70 71
64 65 67 68 69 69 71 71 70 70 71 72 73 72 72 72 72 70 69 70 71 71 68 67 66 65 67 67 67 66 67 68 66 66 67 71 71 70 69 69 71 72 70
64 65 66 67 69 70 71 71 69 70 70 71 71 72 71 69 69 70 68 69 69 67 67 67 67 69 69 69 68 68 67 65 65 66 68 71 72 72 70 71 69 69 71
64 65 65 66 68 69 69 67 69 69 68 70 70 70 70 68 68 69 68 67 66 67 68 68 69 70 69 68 68 68 67 64 65 65 67 71 72 72 71 70 72 73 72
65 65 65 66 66 68 69 66 67 69 67 69 68 70 71 69 69 68 67 66 66 68 69 69 68 70 68 66 66 68 64 64 67 68 66 67 72 72 71 70 72 73 73
64 65 65 65 65 67 68 67 67 68 66 68 67 70 69 69 68 70 67 67 68 70 70 69 69 68 66 64 64 65 63 64 64 66 66 65 65 71 72 71 73 73 73
63 64 65 64 65 66 66 67 67 66 65 65 66 69 69 70 70 70 69 68 70 68 69 66 67 67 68 65 63 64 64 64 65 64 64 64 63 62 68 72 73 73 72
63 64 65 65 65 66 67 66 66 65 65 64 67 68 69 69 71 70 67 66 69 71 69 67 66 68 68 66 62 63 63 63 64 63 66 66 66 65 64 66 68 69 71
63 64 65 65 66 67 66 66 65 64 64 65 68 69 69 68 70 68 67 68 69 71 67 64 68 68 68 67 63 61 63 63 63 63 62 64 67 67 66 68 68 67 69
63 64 65 65 66 66 65 64 64 64 65 66 67 70 70 68 68 70 68 70 70 70 70 69 69 67 64 69 66 62 63 62 60 63 65 62 63 64 66 68 69 69 70
62 63 64 65 66 66 65 65 65 65 66 66 67 68 69 69 68 68 70 69 69 70 71 71 70 66 66 69 65 64 59 58 63 63 65 64 65 66 65 67 68 70 71
62 63 64 65 65 66 65 65 67 67 66 66 66 66 67 69 69 69 70 71 69 71 69 70 70 70 64 66 69 65 59 57 62 64 64 64 67 67 68 69 67 68 72
61 63 64 65 65 65 66 64 63 61 60 65 65 66 67 68 68 69 70 71 70 68 70 70 70 70 70 65 66 67 69 68 64 57 62 63 65 65 69 67 67 68 71
61 62 63 65 65 64 65 65 64 63 63 64 64 67 68 69 69 68 69 70 71 69 69 70 71 71 69 67 67 65 67 67 68 65 59 59 61 64 66 68 67 67 70
61 61 62 64 65 64 65 65 65 63 64 64 64 64 66 66 67 68 68 69 69 69 70 70 70 70 70 69 67 70 67 65 63 66 63 62 61 62 63 68 69 69 70
Wind_Speed
14 14 10 12 14 14 11 10 11 13 14 16 15 14 12 10 10 8 8 8 11 12 12 14 12 10 10 11 11 11 9 11 12 11 12 11 10 10 11 11 10 12 13
16 13 14 13 12 13 11 11 11 12 13 14 13 13 11 10 10 9 10 10 10 11 12 14 12 11 12 12 13 12 11 11 11 11 11 12 10 10 11 10 6 12 13
20 16 14 14 13 14 12 12 12 12 12 13 12 11 12 12 10 10 9 10 11 12 12 13 12 12 13 14 14 13 12 11 10 10 8 7 9 9 9 10 10 12 12
19 16 15 14 13 15 13 12 11 10 11 11 12 11 10 11 10 9 10 10 10 11 12 13 12 12 13 13 12 11 12 12 10 8 6 6 8 8 8 7 8 9 10
16 16 15 15 15 13 13 12 12 9 9 9 11 10 10 10 10 9 10 10 11 11 11 12 12 12 12 11 10 10 9 6 6 3 5 4 3 9 9 6 7 8 8
14 14 16 16 18 16 14 11 11 8 7 9 11 9 10 10 10 9 10 10 11 11 10 10 10 9 8 6 5 3 1 3 3 3 4 4 2 6 6 6 4 5 6
14 11 16 15 14 15 13 13 11 8 7 9 10 9 9 11 10 10 10 11 11 10 9 8 7 7 4 2 2 2 3 5 1 3 5 2 2 1 3 6 6 4 4
13 12 13 13 12 10 11 10 10 8 6 9 9 10 8 8 9 12 11 10 10 9 7 7 4 4 3 1 2 3 5 6 3 5 5 2 1 2 3 4 6 7 5
9 8 11 11 12 10 11 10 9 7 6 9 9 9 8 9 10 11 9 8 8 8 6 5 3 2 1 1 1 1 3 3 3 5 5 3 6 5 7 3 3 4 5
8 8 9 9 9 9 8 9 8 6 7 9 9 9 8 10 9 10 7 6 7 6 5 4 2 2 4 4 3 2 1 5 2 3 3 3 7 5 6 1 0 3 4
7 7 10 10 9 8 5 5 4 2 2 7 7 6 8 6 7 8 5 5 5 3 2 3 3 4 6 6 6 5 4 4 2 3 3 7 10 10 14 9 5 2 2
13 11 10 10 9 8 6 8 8 8 7 5 4 5 6 6 5 4 4 3 2 1 1 1 2 4 5 5 6 7 5 6 6 5 5 10 13 13 13 14 12 10 8
14 11 10 9 7 7 8 9 11 3 2 3 7 7 6 5 4 3 3 2 1 1 1 2 3 4 5 6 8 8 8 7 8 6 5 11 14 15 15 14 14 12 12
15 12 8 9 8 7 9 11 12 4 5 5 7 6 6 5 4 3 2 2 2 0 3 4 5 7 8 8 9 9 9 8 6 5 3 11 15 17 17 16 13 12 14
15 14 13 11 9 8 9 12 7 5 5 3 5 3 4 4 3 4 2 2 1 2 3 4 5 5 6 7 7 7 8 7 6 4 2 10 14 16 15 15 15 15 15
15 15 14 12 10 8 9 12 9 5 5 3 2 2 5 4 3 3 3 3 2 3 3 4 5 6 8 8 9 5 5 6 5 3 2 3 10 15 15 14 15 16 13
14 14 15 15 12 10 10 14 11 7 7 5 3 3 4 4 3 2 4 3 1 3 4 5 4 4 6 5 5 4 4 3 4 4 5 4 4 11 14 14 14 16 13
12 14 13 13 14 13 11 10 10 9 8 6 3 3 3 3 3 4 3 2 1 1 3 5 4 5 6 6 5 6 5 4 4 5 5 6 5 5 6 10 12 14 13
15 14 14 13 14 14 11 9 9 10 7 5 3 4 3 3 2 3 2 2 2 1 2 4 3 4 6 6 5 5 4 4 4 5 5 5 6 8 5 3 6 9 11
14 15 15 13 13 13 10 9 8 8 7 5 5 5 5 4 5 3 1 2 1 0 1 1 3 3 3 5 6 7 6 5 5 6 5 3 2 4 8 9 6 3 8
15 15 16 16 14 14 11 12 10 9 7 6 8 7 6 6 7 5 3 2 1 1 1 1 3 4 3 6 4 4 4 4 4 4 3 2 2 3 5 6 4 3 3
18 18 17 17 16 15 12 9 4 6 5 4 7 7 7 9 9 7 5 4 2 1 3 1 1 2 2 4 4 2 4 1 3 2 3 1 1 3 5 6 5 4 5
20 20 20 18 18 16 15 11 5 5 3 5 8 7 7 9 10 8 7 5 3 2 3 2 2 1 4 3 4 3 4 5 9 3 3 5 4 3 3 5 6 3 4
25 21 19 18 18 18 17 15 16 15 14 10 8 7 6 10 9 9 8 7 6 5 3 2 2 2 3 3 3 3 2 2 3 6 3 5 6 6 7 5 2 3 4
23 23 22 20 19 18 19 17 16 16 12 7 8 7 7 6 9 10 10 9 8 7 5 4 3 4 3 6 2 4 4 3 2 3 8 9 9 7 7 6 3 3 2
21 21 21 21 21 20 19 20 20 18 15 11 9 8 8 8 8 11 12 11 10 9 8 7 6 6 6 7 7 5 5 5 5 4 6 9 9 7 8 4 4 3 4
Wind_Direction
168 167 170 140 125 125 121 118 116 110 111 118 122 126 132 129 123 117 113 116 110 102 96 99 97 96 92 98 107 113 102 101 100 102 104 105 120 126 123 119 138 126 130
151 163 166 140 130 133 135 131 122 117 117 118 125 130 129 125 120 130 120 117 102 104 103 102 104 102 104 109 119 114 108 104 106 105 109 113 110 112 117 117 116 119 138
150 155 156 144 142 146 144 139 132 129 128 128 131 129 131 127 128 130 122 114 111 108 112 107 107 106 109 107 110 112 110 111 110 106 112 104 106 110 116 128 128 135 140
148 149 154 149 144 149 153 142 136 135 133 133 134 133 128 131 133 132 126 117 113 109 106 104 108 108 104 106 109 109 105 92 85 94 108 111 109 122 126 125 127 133 139
146 149 146 147 142 164 158 153 140 140 146 155 135 136 140 137 133 134 123 120 120 117 111 110 109 105 106 108 104 104 106 71 54 116 99 90 114 131 139 142 151 147 166
145 153 144 152 162 164 157 155 147 153 161 147 137 135 131 135 135 132 127 117 119 112 109 107 108 108 106 112 107 92 50 304 288 106 120 114 66 104 139 149 145 155 166
153 156 153 156 159 163 163 159 159 163 170 143 135 136 143 141 145 127 123 119 110 116 109 101 97 96 89 71 40 10 341 294 189 168 103 84 120 192 174 183 177 174 179
154 156 159 145 153 154 159 158 155 165 170 139 140 135 148 139 140 130 121 120 118 113 111 101 97 87 71 27 13 8 17 24 107 128 109 166 198 292 179 223 188 177 190
145 147 148 149 156 161 162 160 153 171 171 152 150 137 153 142 132 120 119 117 119 110 103 90 70 45 10 125 149 78 57 65 76 112 150 202 205 218 8 273 217 223 211
142 140 144 145 148 148 154 151 162 182 175 168 156 150 143 142 133 120 117 130 110 103 92 78 37 4 328 301 301 302 199 148 80 173 164 226 227 239 273 4 269 291 274
154 154 155 148 142 138 129 157 155 196 164 150 138 146 135 134 132 130 87 125 110 98 100 75 359 340 316 288 283 273 272 290 241 227 217 185 229 233 239 257 261 263 242
167 164 160 154 144 137 120 87 88 57 30 96 122 136 134 120 107 111 113 109 81 13 319 358 333 312 287 300 293 276 276 286 268 244 244 200 223 228 245 258 267 268 261
175 169 167 152 147 134 107 104 89 80 18 127 114 125 128 120 124 148 151 153 205 146 301 314 302 309 311 304 299 297 292 277 269 254 242 213 223 229 232 247 258 270 273
179 175 166 157 149 125 119 108 109 137 234 159 133 131 133 153 149 172 193 161 239 297 316 311 314 305 292 291 294 304 296 291 281 269 215 206 222 230 234 236 251 260 270
191 185 181 168 157 139 124 125 124 190 206 134 132 139 158 179 176 189 206 221 249 285 300 310 324 319 310 305 304 303 301 312 297 243 226 193 218 228 236 245 251 258 267
196 193 182 185 173 157 140 139 191 214 187 180 173 188 211 204 179 194 202 231 262 332 348 337 329 318 321 316 309 297 306 328 336 317 265 171 203 223 232 242 256 267 271
193 194 192 189 186 181 169 168 195 210 191 188 220 203 176 171 194 229 217 232 287 342 335 336 317 311 332 328 336 339 319 322 316 321 299 289 203 217 224 233 247 264 273
184 185 187 193 191 186 186 186 184 203 198 195 200 194 194 193 215 203 199 174 290 330 332 338 342 346 348 347 355 343 328 314 325 309 304 298 293 274 208 224 245 257 267
192 184 186 186 183 183 183 191 197 198 199 192 199 209 195 215 201 209 271 169 127 17 342 319 335 350 349 344 328 324 323 320 337 338 326 310 294 288 281 232 271 263 256
195 192 191 192 186 184 181 190 201 201 216 198 218 218 209 197 190 182 105 134 166 306 32 15 329 332 352 350 315 300 295 292 311 315 315 300 297 284 296 300 281 245 243
194 188 190 188 188 182 182 188 199 203 205 225 237 226 202 201 201 194 195 216 183 216 66 27 327 333 328 357 304 314 312 286 286 311 331 323 288 288 307 304 283 196 203
196 193 189 195 187 191 187 189 182 174 203 213 218 222 215 210 205 207 212 223 238 208 199 175 333 335 313 13 357 335 340 275 9 20 15 52 51 283 288 256 291 250 226
199 197 193 195 190 192 196 191 170 147 155 186 212 215 218 206 201 203 212 228 234 223 210 195 236 342 337 9 27 2 338 347 339 1 47 31 8 13 333 295 242 237 188
204 197 196 191 194 190 190 198 201 202 204 201 199 209 208 203 199 202 218 227 236 251 238 233 238 289 299 322 3 2 14 325 335 317 337 356 357 7 28 31 171 183 159
198 194 196 192 193 193 190 201 206 213 210 214 213 211 205 194 203 208 212 215 226 241 239 229 244 269 272 297 280 307 312 295 290 302 311 334 338 7 8 18 70 165 139
198 195 193 193 197 196 196 199 206 213 213 215 227 233 224 216 207 212 214 215 220 228 233 241 227 244 265 277 283 257 259 288 288 277 298 310 320 325 339 355 41 101 161